Time,TemperatureF,DewpointF,PressureIn,WindDirection,WindDirectionDegrees,WindSpeedMPH,WindSpeedGustMPH,Humidity,HourlyPrecipIn,Conditions,Clouds,dailyrainin,SolarRadiationWatts/m^2,SoftwareType,DateUTC
2013-08-22 00:01:00,64.8,62.4,29.98,East,83,1.0,2.0,92,-99.99,,,-99.99,0.0,meteohub,2013-08-22 04:01:00,
2013-08-22 00:02:00,64.8,62.4,29.98,East,83,2.0,2.0,92,-99.99,,,-99.99,0.0,meteohub,2013-08-22 04:02:00,
2013-08-22 00:03:00,64.8,62.4,29.98,East,83,1.0,2.0,92,-99.99,,,-99.99,0.0,meteohub,2013-08-22 04:03:00,
2013-08-22 00:04:00,64.8,62.4,29.99,East,99,0.0,2.0,92,-99.99,,,-99.99,0.0,meteohub,2013-08-22 04:04:00,
2013-08-22 00:07:00,64.8,62.4,29.99,East,98,0.0,3.0,92,-99.99,,,-99.99,0.0,meteohub,2013-08-22 04:07:00,
2013-08-22 00:12:00,64.8,62.4,29.98,East,98,0.0,3.0,92,-99.99,,,-99.99,0.0,meteohub,2013-08-22 04:12:00,
2013-08-22 00:17:00,64.8,62.4,29.98,ESE,107,0.0,3.0,92,-99.99,,,-99.99,0.0,meteohub,2013-08-22 04:17:00,
2013-08-22 00:22:00,64.6,62.4,29.98,ESE,105,1.0,3.0,93,-99.99,,,-99.99,0.0,meteohub,2013-08-22 04:22:00,
2013-08-22 00:27:00,64.6,62.4,29.98,ESE,104,1.0,3.0,93,-99.99,,,-99.99,0.0,meteohub,2013-08-22 04:27:00,
2013-08-22 00:32:00,64.6,62.4,29.98,East,89,1.0,3.0,93,-99.99,,,-99.99,0.0,meteohub,2013-08-22 04:32:00,
2013-08-22 00:37:00,64.6,62.4,29.98,East,99,0.0,3.0,93,-99.99,,,-99.99,0.0,meteohub,2013-08-22 04:37:00,
2013-08-22 00:42:00,64.6,62.4,29.98,East,99,0.0,3.0,93,-99.99,,,-99.99,0.0,meteohub,2013-08-22 04:42:00,
2013-08-22 00:47:00,64.8,62.6,29.98,East,92,1.0,2.0,93,-99.99,,,-99.99,0.0,meteohub,2013-08-22 04:47:00,
2013-08-22 00:52:00,64.8,62.6,29.98,East,98,1.0,5.0,93,-99.99,,,-99.99,0.0,meteohub,2013-08-22 04:52:00,
2013-08-22 00:57:00,64.8,62.6,29.98,ESE,107,0.0,5.0,93,-99.99,,,-99.99,0.0,meteohub,2013-08-22 04:57:00,
2013-08-22 01:02:00,64.8,62.6,29.98,East,86,0.0,5.0,93,-99.99,,,-99.99,0.0,meteohub,2013-08-22 05:02:00,
2013-08-22 01:07:00,64.8,62.6,29.98,East,82,0.0,2.0,93,-99.99,,,-99.99,0.0,meteohub,2013-08-22 05:07:00,
2013-08-22 01:12:00,64.8,62.6,29.98,East,82,0.0,2.0,93,-99.99,,,-99.99,0.0,meteohub,2013-08-22 05:12:00,
2013-08-22 01:17:00,64.8,62.6,29.98,East,82,0.0,2.0,93,-99.99,,,-99.99,0.0,meteohub,2013-08-22 05:17:00,
2013-08-22 01:22:00,64.8,62.6,29.97,East,82,0.0,2.0,93,-99.99,,,-99.99,0.0,meteohub,2013-08-22 05:22:00,
2013-08-22 01:27:00,64.6,62.4,29.97,East,82,0.0,1.0,93,-99.99,,,-99.99,0.0,meteohub,2013-08-22 05:27:00,
2013-08-22 01:32:00,64.6,62.4,29.97,East,82,0.0,1.0,93,-99.99,,,-99.99,0.0,meteohub,2013-08-22 05:32:00,
2013-08-22 01:37:00,64.4,62.6,29.97,East,82,0.0,1.0,94,-99.99,,,-99.99,0.0,meteohub,2013-08-22 05:37:00,
2013-08-22 01:42:00,64.2,62.4,29.96,East,101,0.0,2.0,94,-99.99,,,-99.99,0.0,meteohub,2013-08-22 05:42:00,
2013-08-22 01:47:00,64.2,62.4,29.96,East,100,0.0,2.0,94,-99.99,,,-99.99,0.0,meteohub,2013-08-22 05:47:00,
2013-08-22 01:52:00,64.2,62.4,29.96,East,98,0.0,2.0,94,-99.99,,,-99.99,0.0,meteohub,2013-08-22 05:52:00,
2013-08-22 01:57:00,64.2,62.8,29.96,East,98,1.0,1.0,95,-99.99,,,-99.99,0.0,meteohub,2013-08-22 05:57:00,
2013-08-22 02:02:00,64.4,62.6,29.96,East,98,0.0,1.0,94,-99.99,,,-99.99,0.0,meteohub,2013-08-22 06:02:00,
2013-08-22 02:07:00,64.2,62.8,29.96,East,98,0.0,1.0,95,-99.99,,,-99.99,0.0,meteohub,2013-08-22 06:07:00,
2013-08-22 02:12:00,64.4,63.0,29.96,East,98,0.0,1.0,95,-99.99,,,-99.99,0.0,meteohub,2013-08-22 06:12:00,
2013-08-22 02:17:00,64.2,62.8,29.96,East,98,0.0,1.0,95,-99.99,,,-99.99,0.0,meteohub,2013-08-22 06:17:00,
2013-08-22 02:22:00,64.2,62.8,29.96,East,98,0.0,1.0,95,-99.99,,,-99.99,0.0,meteohub,2013-08-22 06:22:00,
2013-08-22 02:27:00,64.2,62.8,29.96,East,98,0.0,1.0,95,-99.99,,,-99.99,0.0,meteohub,2013-08-22 06:27:00,
2013-08-22 02:32:00,64.2,62.8,29.96,East,98,0.0,1.0,95,-99.99,,,-99.99,0.0,meteohub,2013-08-22 06:32:00,
2013-08-22 02:37:00,64.2,62.8,29.96,East,98,0.0,1.0,95,-99.99,,,-99.99,0.0,meteohub,2013-08-22 06:37:00,
2013-08-22 02:42:00,64.2,63.1,29.96,East,98,0.0,1.0,96,-99.99,,,-99.99,0.0,meteohub,2013-08-22 06:42:00,
2013-08-22 02:47:00,64.2,63.1,29.96,East,98,0.0,1.0,96,-99.99,,,-99.99,0.0,meteohub,2013-08-22 06:47:00,
2013-08-22 02:52:00,64.2,63.1,29.96,East,97,0.0,1.0,96,-99.99,,,-99.99,0.0,meteohub,2013-08-22 06:52:00,
2013-08-22 02:57:00,64.4,63.3,29.95,East,97,0.0,1.0,96,-99.99,,,-99.99,0.0,meteohub,2013-08-22 06:57:00,
2013-08-22 03:02:00,64.4,63.3,29.95,East,97,0.0,1.0,96,-99.99,,,-99.99,0.0,meteohub,2013-08-22 07:02:00,
2013-08-22 03:07:00,64.4,63.3,29.95,ENE,74,0.0,1.0,96,-99.99,,,-99.99,0.0,meteohub,2013-08-22 07:07:00,
2013-08-22 03:12:00,64.4,63.3,29.95,ENE,73,0.0,1.0,96,-99.99,,,-99.99,0.0,meteohub,2013-08-22 07:12:00,
2013-08-22 03:17:00,64.4,63.3,29.95,ENE,74,0.0,1.0,96,-99.99,,,-99.99,0.0,meteohub,2013-08-22 07:17:00,
2013-08-22 03:22:00,64.4,63.3,29.95,East,80,1.0,2.0,96,-99.99,,,-99.99,0.0,meteohub,2013-08-22 07:22:00,
2013-08-22 03:27:00,64.4,63.3,29.95,East,80,0.0,2.0,96,-99.99,,,-99.99,0.0,meteohub,2013-08-22 07:27:00,
2013-08-22 03:32:00,64.2,63.1,29.95,NE,37,0.0,2.0,96,-99.99,,,-99.99,0.0,meteohub,2013-08-22 07:32:00,
2013-08-22 03:37:00,64.2,63.1,29.95,NE,46,0.0,1.0,96,-99.99,,,-99.99,0.0,meteohub,2013-08-22 07:37:00,
2013-08-22 03:42:00,64.2,63.1,29.95,ENE,78,0.0,1.0,96,-99.99,,,-99.99,0.0,meteohub,2013-08-22 07:42:00,
2013-08-22 03:47:00,64.0,63.0,29.95,ENE,78,0.0,1.0,96,-99.99,,,-99.99,0.0,meteohub,2013-08-22 07:47:00,
2013-08-22 03:52:00,64.0,63.0,29.94,ENE,78,0.0,1.0,96,-99.99,,,-99.99,0.0,meteohub,2013-08-22 07:52:00,
2013-08-22 03:57:00,63.9,62.8,29.94,ENE,78,0.0,1.0,96,-99.99,,,-99.99,0.0,meteohub,2013-08-22 07:57:00,
2013-08-22 04:02:00,63.9,62.8,29.94,ENE,78,0.0,1.0,96,-99.99,,,-99.99,0.0,meteohub,2013-08-22 08:02:00,
2013-08-22 04:07:00,63.9,63.0,29.94,East,85,0.0,1.0,97,-99.99,,,-99.99,0.0,meteohub,2013-08-22 08:07:00,
2013-08-22 04:12:00,63.9,63.0,29.94,East,85,0.0,1.0,97,-99.99,,,-99.99,0.0,meteohub,2013-08-22 08:12:00,
2013-08-22 04:17:00,63.9,63.0,29.94,East,85,0.0,1.0,97,-99.99,,,-99.99,0.0,meteohub,2013-08-22 08:17:00,
2013-08-22 04:22:00,63.9,63.0,29.94,East,85,0.0,1.0,97,-99.99,,,-99.99,0.0,meteohub,2013-08-22 08:22:00,
2013-08-22 04:27:00,63.9,63.0,29.94,East,85,0.0,1.0,97,-99.99,,,-99.99,0.0,meteohub,2013-08-22 08:27:00,
2013-08-22 04:32:00,63.9,63.0,29.94,East,85,0.0,1.0,97,-99.99,,,-99.99,0.0,meteohub,2013-08-22 08:32:00,
2013-08-22 04:37:00,63.9,63.0,29.94,East,85,0.0,1.0,97,-99.99,,,-99.99,0.0,meteohub,2013-08-22 08:37:00,
2013-08-22 04:42:00,63.9,63.0,29.94,East,85,0.0,1.0,97,-99.99,,,-99.99,0.0,meteohub,2013-08-22 08:42:00,
2013-08-22 04:47:00,63.7,62.8,29.94,East,85,0.0,1.0,97,-99.99,,,-99.99,0.0,meteohub,2013-08-22 08:47:00,
2013-08-22 04:52:00,63.7,62.8,29.94,East,85,0.0,0.0,97,-99.99,,,-99.99,0.0,meteohub,2013-08-22 08:52:00,
2013-08-22 04:57:00,63.7,62.8,29.93,East,85,0.0,0.0,97,-99.99,,,-99.99,0.0,meteohub,2013-08-22 08:57:00,
2013-08-22 05:02:00,63.7,62.8,29.93,East,85,0.0,0.0,97,-99.99,,,-99.99,0.0,meteohub,2013-08-22 09:02:00,
2013-08-22 05:07:00,63.7,62.8,29.93,East,85,0.0,0.0,97,-99.99,,,-99.99,0.0,meteohub,2013-08-22 09:07:00,
2013-08-22 05:12:00,63.7,62.8,29.93,East,85,0.0,0.0,97,-99.99,,,-99.99,0.0,meteohub,2013-08-22 09:12:00,
2013-08-22 05:17:00,63.9,63.3,29.93,East,85,0.0,0.0,98,-99.99,,,-99.99,0.0,meteohub,2013-08-22 09:17:00,
2013-08-22 05:22:00,63.9,63.3,29.93,East,85,0.0,1.0,98,-99.99,,,-99.99,0.0,meteohub,2013-08-22 09:22:00,
2013-08-22 05:27:00,63.9,63.0,29.93,East,85,0.0,1.0,97,-99.99,,,-99.99,0.0,meteohub,2013-08-22 09:27:00,
2013-08-22 05:32:00,63.9,63.0,29.93,East,85,0.0,0.0,97,-99.99,,,-99.99,0.0,meteohub,2013-08-22 09:32:00,
2013-08-22 05:37:00,63.9,63.0,29.93,East,85,0.0,0.0,97,-99.99,,,-99.99,0.0,meteohub,2013-08-22 09:37:00,
2013-08-22 05:42:00,63.9,63.0,29.93,East,85,0.0,1.0,97,-99.99,,,-99.99,0.0,meteohub,2013-08-22 09:42:00,
2013-08-22 05:47:00,63.7,62.8,29.93,East,85,0.0,1.0,97,-99.99,,,-99.99,0.0,meteohub,2013-08-22 09:47:00,
2013-08-22 05:53:00,63.5,62.6,29.94,East,85,0.0,1.0,97,-99.99,,,-99.99,5.0,meteohub,2013-08-22 09:53:00,
2013-08-22 05:58:00,63.3,62.4,29.94,East,85,0.0,0.0,97,-99.99,,,-99.99,7.0,meteohub,2013-08-22 09:58:00,
2013-08-22 06:03:00,63.1,62.2,29.93,East,86,0.0,1.0,97,-99.99,,,-99.99,11.0,meteohub,2013-08-22 10:03:00,
2013-08-22 06:08:00,63.1,62.2,29.94,East,92,1.0,1.0,97,-99.99,,,-99.99,12.0,meteohub,2013-08-22 10:08:00,
2013-08-22 06:13:00,63.1,62.6,29.94,East,91,0.0,2.0,98,-99.99,,,-99.99,16.0,meteohub,2013-08-22 10:13:00,
2013-08-22 06:19:00,63.3,62.8,29.94,East,88,1.0,2.0,98,-99.99,,,-99.99,19.0,meteohub,2013-08-22 10:19:00,
2013-08-22 06:24:00,63.3,62.8,29.93,East,94,1.0,2.0,98,-99.99,,,-99.99,21.0,meteohub,2013-08-22 10:24:00,
2013-08-22 06:29:00,63.5,63.0,29.93,East,96,1.0,3.0,98,-99.99,,,-99.99,21.0,meteohub,2013-08-22 10:29:00,
2013-08-22 06:34:00,63.7,63.1,29.94,East,96,1.0,3.0,98,-99.99,,,-99.99,25.0,meteohub,2013-08-22 10:34:00,
2013-08-22 06:39:00,63.7,63.1,29.94,East,96,1.0,3.0,98,-99.99,,,-99.99,28.0,meteohub,2013-08-22 10:39:00,
2013-08-22 06:44:00,63.9,63.3,29.93,East,96,0.0,2.0,98,-99.99,,,-99.99,32.0,meteohub,2013-08-22 10:44:00,
2013-08-22 06:49:00,64.0,63.5,29.94,East,96,0.0,2.0,98,-99.99,,,-99.99,33.0,meteohub,2013-08-22 10:49:00,
2013-08-22 08:27:00,69.3,65.3,29.92,East,98,0.0,1.0,87,-99.99,,,-99.99,113.0,meteohub,2013-08-22 12:27:00,
2013-08-22 08:32:00,69.3,65.3,29.92,East,98,0.0,1.0,87,-99.99,,,-99.99,120.0,meteohub,2013-08-22 12:32:00,
2013-08-22 08:37:00,69.3,65.3,29.92,East,88,0.0,1.0,87,-99.99,,,-99.99,221.0,meteohub,2013-08-22 12:37:00,
2013-08-22 08:42:00,69.3,65.5,29.91,East,93,0.0,1.0,88,-99.99,,,-99.99,155.0,meteohub,2013-08-22 12:42:00,
2013-08-22 08:47:00,69.4,65.5,29.92,ENE,70,0.0,1.0,87,-99.99,,,-99.99,223.0,meteohub,2013-08-22 12:47:00,
2013-08-22 08:53:00,69.6,65.3,29.92,ENE,71,0.0,2.0,86,-99.99,,,-99.99,102.0,meteohub,2013-08-22 12:53:00,
2013-08-22 08:58:00,69.4,65.1,29.91,East,96,0.0,3.0,86,-99.99,,,-99.99,97.0,meteohub,2013-08-22 12:58:00,
2013-08-22 09:00:00,69.3,64.6,29.92,East,82,0.0,3.0,85,-99.99,,,-99.99,107.0,meteohub,2013-08-22 13:00:00,
2013-08-22 09:05:00,68.7,64.4,29.91,East,80,0.0,5.0,86,-99.99,,,-99.99,125.0,meteohub,2013-08-22 13:05:00,
2013-08-22 09:10:00,68.5,64.6,29.91,East,90,0.0,5.0,87,-99.99,,,-99.99,134.0,meteohub,2013-08-22 13:10:00,
2013-08-22 09:16:00,68.7,64.8,29.91,East,85,0.0,5.0,87,-99.99,,,-99.99,142.0,meteohub,2013-08-22 13:16:00,
2013-08-22 09:21:00,68.7,64.8,29.91,ENE,78,0.0,3.0,87,-99.99,,,-99.99,181.0,meteohub,2013-08-22 13:21:00,
2013-08-22 09:26:00,69.1,64.8,29.91,ENE,77,0.0,3.0,86,-99.99,,,-99.99,214.0,meteohub,2013-08-22 13:26:00,
2013-08-22 09:31:00,69.3,64.9,29.91,East,82,5.0,5.0,86,-99.99,,,-99.99,171.0,meteohub,2013-08-22 13:31:00,
2013-08-22 09:36:00,69.1,65.1,29.91,East,88,0.0,5.0,87,-99.99,,,-99.99,144.0,meteohub,2013-08-22 13:36:00,
2013-08-22 09:41:00,69.1,64.8,29.91,East,81,0.0,5.0,86,-99.99,,,-99.99,128.0,meteohub,2013-08-22 13:41:00,
2013-08-22 09:46:00,69.1,64.8,29.91,East,80,0.0,5.0,86,-99.99,,,-99.99,149.0,meteohub,2013-08-22 13:46:00,
2013-08-22 09:51:00,68.9,64.9,29.91,East,80,0.0,3.0,87,-99.99,,,-99.99,151.0,meteohub,2013-08-22 13:51:00,
2013-08-22 09:56:00,68.9,64.9,29.92,East,79,0.0,3.0,87,-99.99,,,-99.99,202.0,meteohub,2013-08-22 13:56:00,
2013-08-22 10:01:00,69.1,65.1,29.92,ENE,77,0.0,3.0,87,-99.99,,,-99.99,250.0,meteohub,2013-08-22 14:01:00,
2013-08-22 10:07:00,69.4,65.5,29.92,ENE,77,0.0,1.0,87,-99.99,,,-99.99,295.0,meteohub,2013-08-22 14:07:00,
2013-08-22 10:12:00,69.8,65.5,29.92,East,81,0.0,3.0,86,-99.99,,,-99.99,432.0,meteohub,2013-08-22 14:12:00,
2013-08-22 10:17:00,70.3,66.0,29.92,ENE,76,0.0,3.0,86,-99.99,,,-99.99,621.0,meteohub,2013-08-22 14:17:00,
2013-08-22 10:22:00,70.9,65.8,29.92,East,80,0.0,3.0,84,-99.99,,,-99.99,497.0,meteohub,2013-08-22 14:22:00,
2013-08-22 10:27:00,71.2,66.2,29.92,SE,146,0.0,2.0,84,-99.99,,,-99.99,545.0,meteohub,2013-08-22 14:27:00,
2013-08-22 10:32:00,71.4,66.0,29.92,NE,53,0.0,3.0,83,-99.99,,,-99.99,394.0,meteohub,2013-08-22 14:32:00,
2013-08-22 10:37:00,72.0,66.6,29.92,ENE,76,0.0,3.0,83,-99.99,,,-99.99,492.0,meteohub,2013-08-22 14:37:00,
2013-08-22 10:42:00,72.1,66.4,29.92,East,84,0.0,3.0,82,-99.99,,,-99.99,526.0,meteohub,2013-08-22 14:42:00,
2013-08-22 10:47:00,72.7,66.9,29.92,East,92,0.0,1.0,82,-99.99,,,-99.99,608.0,meteohub,2013-08-22 14:47:00,
2013-08-22 10:52:00,73.0,66.9,29.92,South,186,0.0,1.0,81,-99.99,,,-99.99,531.0,meteohub,2013-08-22 14:52:00,
2013-08-22 10:57:00,73.2,67.1,29.91,East,84,0.0,1.0,81,-99.99,,,-99.99,621.0,meteohub,2013-08-22 14:57:00,
2013-08-22 11:02:00,73.6,66.7,29.91,SSE,163,0.0,3.0,79,-99.99,,,-99.99,248.0,meteohub,2013-08-22 15:02:00,
2013-08-22 11:07:00,73.9,67.1,29.91,East,80,0.0,3.0,79,-99.99,,,-99.99,176.0,meteohub,2013-08-22 15:07:00,
2013-08-22 11:12:00,73.9,66.6,29.91,ENE,61,0.0,3.0,78,-99.99,,,-99.99,176.0,meteohub,2013-08-22 15:12:00,
2013-08-22 11:17:00,73.9,67.1,29.91,East,82,0.0,3.0,79,-99.99,,,-99.99,176.0,meteohub,2013-08-22 15:17:00,
2013-08-22 11:22:00,74.3,66.9,29.91,East,80,0.0,3.0,78,-99.99,,,-99.99,694.0,meteohub,2013-08-22 15:22:00,
2013-08-22 11:27:00,74.7,67.3,29.91,East,88,0.0,2.0,78,-99.99,,,-99.99,691.0,meteohub,2013-08-22 15:27:00,
2013-08-22 11:32:00,75.2,67.5,29.91,WSW,248,0.0,2.0,77,-99.99,,,-99.99,652.0,meteohub,2013-08-22 15:32:00,
2013-08-22 11:37:00,75.4,67.6,29.90,East,99,0.0,2.0,77,-99.99,,,-99.99,580.0,meteohub,2013-08-22 15:37:00,
2013-08-22 11:42:00,75.9,67.8,29.90,East,81,0.0,2.0,76,-99.99,,,-99.99,135.0,meteohub,2013-08-22 15:42:00,
2013-08-22 11:47:00,76.3,68.2,29.90,SW,230,0.0,2.0,76,-99.99,,,-99.99,130.0,meteohub,2013-08-22 15:47:00,
2013-08-22 11:52:00,76.3,68.2,29.89,East,97,1.0,2.0,76,-99.99,,,-99.99,127.0,meteohub,2013-08-22 15:52:00,
2013-08-22 11:57:00,76.5,68.0,29.89,East,81,0.0,3.0,75,-99.99,,,-99.99,127.0,meteohub,2013-08-22 15:57:00,
2013-08-22 12:02:00,76.3,66.9,29.89,East,88,0.0,6.0,73,-99.99,,,-99.99,127.0,meteohub,2013-08-22 16:02:00,
2013-08-22 12:07:00,75.9,67.5,29.89,East,86,1.0,6.0,75,-99.99,,,-99.99,434.0,meteohub,2013-08-22 16:07:00,
2013-08-22 12:12:00,76.1,67.3,29.89,East,81,0.0,6.0,74,-99.99,,,-99.99,116.0,meteohub,2013-08-22 16:12:00,
2013-08-22 12:17:00,76.3,66.9,29.89,NE,38,0.0,3.0,73,-99.99,,,-99.99,116.0,meteohub,2013-08-22 16:17:00,
2013-08-22 12:22:00,76.3,67.8,29.89,ENE,72,1.0,3.0,75,-99.99,,,-99.99,114.0,meteohub,2013-08-22 16:22:00,
2013-08-22 12:27:00,76.6,67.3,29.88,West,264,0.0,3.0,73,-99.99,,,-99.99,111.0,meteohub,2013-08-22 16:27:00,
2013-08-22 12:32:00,76.6,66.9,29.88,East,93,0.0,2.0,72,-99.99,,,-99.99,111.0,meteohub,2013-08-22 16:32:00,
2013-08-22 12:37:00,76.6,67.3,29.88,East,80,1.0,3.0,73,-99.99,,,-99.99,109.0,meteohub,2013-08-22 16:37:00,
2013-08-22 12:42:00,76.6,67.3,29.88,East,84,0.0,8.0,73,-99.99,,,-99.99,107.0,meteohub,2013-08-22 16:42:00,
2013-08-22 12:47:00,76.6,67.3,29.88,ESE,112,2.0,8.0,73,-99.99,,,-99.99,105.0,meteohub,2013-08-22 16:47:00,
2013-08-22 12:52:00,76.5,67.1,29.88,ENE,61,0.0,2.0,73,-99.99,,,-99.99,102.0,meteohub,2013-08-22 16:52:00,
2013-08-22 12:57:00,76.5,67.6,29.88,East,83,3.0,4.0,74,-99.99,,,-99.99,102.0,meteohub,2013-08-22 16:57:00,
2013-08-22 13:02:00,76.5,67.6,29.88,NE,34,0.0,4.0,74,-99.99,,,-99.99,102.0,meteohub,2013-08-22 17:02:00,
2013-08-22 13:07:00,76.6,67.3,29.87,East,96,0.0,4.0,73,-99.99,,,-99.99,102.0,meteohub,2013-08-22 17:07:00,
2013-08-22 13:12:00,76.8,67.1,29.87,ENE,76,0.0,6.0,72,-99.99,,,-99.99,102.0,meteohub,2013-08-22 17:12:00,
2013-08-22 13:17:00,77.0,67.3,29.87,ENE,69,0.0,6.0,72,-99.99,,,-99.99,100.0,meteohub,2013-08-22 17:17:00,
2013-08-22 13:22:00,77.2,67.1,29.87,SSW,203,1.0,6.0,71,-99.99,,,-99.99,98.0,meteohub,2013-08-22 17:22:00,
2013-08-22 13:27:00,77.2,66.6,29.87,East,100,1.0,5.0,70,-99.99,,,-99.99,98.0,meteohub,2013-08-22 17:27:00,
2013-08-22 13:32:00,77.4,67.3,29.87,ENE,65,0.0,6.0,71,-99.99,,,-99.99,97.0,meteohub,2013-08-22 17:32:00,
2013-08-22 13:37:00,77.4,67.3,29.87,ENE,68,0.0,6.0,71,-99.99,,,-99.99,98.0,meteohub,2013-08-22 17:37:00,
2013-08-22 13:42:00,77.5,67.5,29.86,East,94,0.0,6.0,71,-99.99,,,-99.99,102.0,meteohub,2013-08-22 17:42:00,
2013-08-22 13:47:00,77.5,66.9,29.86,East,97,1.0,3.0,70,-99.99,,,-99.99,100.0,meteohub,2013-08-22 17:47:00,
2013-08-22 13:52:00,77.4,67.3,29.86,ESE,113,1.0,6.0,71,-99.99,,,-99.99,100.0,meteohub,2013-08-22 17:52:00,
2013-08-22 13:57:00,77.4,67.3,29.86,East,86,0.0,6.0,71,-99.99,,,-99.99,100.0,meteohub,2013-08-22 17:57:00,
2013-08-22 14:02:00,77.2,67.1,29.86,ENE,75,0.0,4.0,71,-99.99,,,-99.99,100.0,meteohub,2013-08-22 18:02:00,
2013-08-22 14:07:00,76.6,66.6,29.86,East,86,1.0,5.0,71,-99.99,,,-99.99,100.0,meteohub,2013-08-22 18:07:00,
2013-08-22 14:12:00,76.5,67.1,29.86,SW,220,0.0,5.0,73,-99.99,,,-99.99,100.0,meteohub,2013-08-22 18:12:00,
2013-08-22 14:17:00,76.5,67.1,29.86,East,97,0.0,5.0,73,-99.99,,,-99.99,121.0,meteohub,2013-08-22 18:17:00,
2013-08-22 14:22:00,76.3,66.9,29.86,ESE,102,2.0,3.0,73,-99.99,,,-99.99,100.0,meteohub,2013-08-22 18:22:00,
2013-08-22 14:27:00,76.3,66.9,29.85,NE,56,1.0,3.0,73,-99.99,,,-99.99,100.0,meteohub,2013-08-22 18:27:00,
2013-08-22 14:32:00,75.9,66.6,29.85,East,91,0.0,3.0,73,-99.99,,,-99.99,677.0,meteohub,2013-08-22 18:32:00,
2013-08-22 14:37:00,75.9,66.6,29.85,ESE,115,0.0,4.0,73,-99.99,,,-99.99,675.0,meteohub,2013-08-22 18:37:00,
2013-08-22 14:42:00,76.1,67.3,29.84,ESE,102,1.0,4.0,74,-99.99,,,-99.99,663.0,meteohub,2013-08-22 18:42:00,
2013-08-22 14:47:00,76.5,67.6,29.84,ENE,58,0.0,3.0,74,-99.99,,,-99.99,649.0,meteohub,2013-08-22 18:47:00,
2013-08-22 14:52:00,76.8,67.1,29.84,East,82,2.0,3.0,72,-99.99,,,-99.99,647.0,meteohub,2013-08-22 18:52:00,
2013-08-22 14:57:00,76.8,67.1,29.84,WNW,286,1.0,3.0,72,-99.99,,,-99.99,635.0,meteohub,2013-08-22 18:57:00,
2013-08-22 15:02:00,76.6,66.9,29.84,ENE,74,0.0,3.0,72,-99.99,,,-99.99,352.0,meteohub,2013-08-22 19:02:00,
2013-08-22 15:07:00,76.3,66.9,29.84,WNW,289,0.0,3.0,73,-99.99,,,-99.99,445.0,meteohub,2013-08-22 19:07:00,
2013-08-22 15:12:00,75.7,66.9,29.83,East,93,1.0,6.0,74,-99.99,,,-99.99,120.0,meteohub,2013-08-22 19:12:00,
2013-08-22 15:17:00,75.6,67.1,29.83,East,99,0.0,6.0,75,-99.99,,,-99.99,311.0,meteohub,2013-08-22 19:17:00,
2013-08-22 15:22:00,75.4,66.6,29.83,ESE,104,2.0,6.0,74,-99.99,,,-99.99,176.0,meteohub,2013-08-22 19:22:00,
2013-08-22 15:27:00,74.7,66.2,29.83,East,88,0.0,5.0,75,-99.99,,,-99.99,188.0,meteohub,2013-08-22 19:27:00,
2013-08-22 15:32:00,74.1,66.0,29.83,East,80,1.0,5.0,76,-99.99,,,-99.99,188.0,meteohub,2013-08-22 19:32:00,
2013-08-22 15:37:00,73.9,66.2,29.82,East,84,1.0,5.0,77,-99.99,,,-99.99,197.0,meteohub,2013-08-22 19:37:00,
2013-08-22 15:42:00,73.9,66.2,29.82,East,82,1.0,5.0,77,-99.99,,,-99.99,357.0,meteohub,2013-08-22 19:42:00,
2013-08-22 15:47:00,74.1,66.4,29.82,East,92,1.0,3.0,77,-99.99,,,-99.99,329.0,meteohub,2013-08-22 19:47:00,
2013-08-22 15:52:00,73.9,66.6,29.82,NE,34,0.0,6.0,78,-99.99,,,-99.99,355.0,meteohub,2013-08-22 19:52:00,
2013-08-22 15:57:00,73.9,66.6,29.82,East,86,2.0,6.0,78,-99.99,,,-99.99,113.0,meteohub,2013-08-22 19:57:00,
2013-08-22 16:02:00,73.4,66.2,29.81,ENE,78,0.0,6.0,78,-99.99,,,-99.99,193.0,meteohub,2013-08-22 20:02:00,
2013-08-22 16:07:00,73.0,66.2,29.81,East,90,0.0,5.0,79,-99.99,,,-99.99,322.0,meteohub,2013-08-22 20:07:00,
2013-08-22 16:12:00,73.2,66.0,29.81,ENE,72,0.0,5.0,78,-99.99,,,-99.99,452.0,meteohub,2013-08-22 20:12:00,
2013-08-22 16:17:00,73.4,66.2,29.82,ENE,73,0.0,6.0,78,-99.99,,,-99.99,457.0,meteohub,2013-08-22 20:17:00,
2013-08-22 16:22:00,73.6,66.4,29.81,East,80,2.0,6.0,78,-99.99,,,-99.99,443.0,meteohub,2013-08-22 20:22:00,
2013-08-22 16:27:00,73.8,66.0,29.81,East,86,0.0,5.0,77,-99.99,,,-99.99,436.0,meteohub,2013-08-22 20:27:00,
2013-08-22 16:32:00,73.6,65.8,29.81,East,94,0.0,7.0,77,-99.99,,,-99.99,413.0,meteohub,2013-08-22 20:32:00,
2013-08-22 16:37:00,73.6,66.4,29.81,ENE,75,0.0,7.0,78,-99.99,,,-99.99,399.0,meteohub,2013-08-22 20:37:00,
2013-08-22 16:42:00,73.4,66.2,29.81,ENE,61,1.0,6.0,78,-99.99,,,-99.99,385.0,meteohub,2013-08-22 20:42:00,
2013-08-22 16:47:00,73.4,66.2,29.81,East,96,1.0,6.0,78,-99.99,,,-99.99,373.0,meteohub,2013-08-22 20:47:00,
2013-08-22 16:52:00,73.2,65.7,29.81,East,92,1.0,5.0,77,-99.99,,,-99.99,362.0,meteohub,2013-08-22 20:52:00,
2013-08-22 16:57:00,73.2,66.0,29.81,ENE,63,0.0,7.0,78,-99.99,,,-99.99,352.0,meteohub,2013-08-22 20:57:00,
2013-08-22 17:02:00,73.2,66.0,29.80,ESE,104,0.0,7.0,78,-99.99,,,-99.99,311.0,meteohub,2013-08-22 21:02:00,
2013-08-22 17:07:00,73.0,65.8,29.80,ESE,109,2.0,7.0,78,-99.99,,,-99.99,323.0,meteohub,2013-08-22 21:07:00,
2013-08-22 17:12:00,72.9,66.0,29.80,East,83,1.0,3.0,79,-99.99,,,-99.99,163.0,meteohub,2013-08-22 21:12:00,
2013-08-22 17:17:00,72.3,65.5,29.80,East,85,1.0,5.0,79,-99.99,,,-99.99,271.0,meteohub,2013-08-22 21:17:00,
2013-08-22 17:22:00,72.1,65.7,29.80,East,99,1.0,5.0,80,-99.99,,,-99.99,262.0,meteohub,2013-08-22 21:22:00,
2013-08-22 17:27:00,72.0,65.8,29.80,East,81,1.0,5.0,81,-99.99,,,-99.99,244.0,meteohub,2013-08-22 21:27:00,
2013-08-22 17:32:00,71.8,65.7,29.79,ESE,103,1.0,5.0,81,-99.99,,,-99.99,98.0,meteohub,2013-08-22 21:32:00,
2013-08-22 17:37:00,71.8,65.7,29.79,East,83,1.0,4.0,81,-99.99,,,-99.99,200.0,meteohub,2013-08-22 21:37:00,
2013-08-22 17:42:00,71.8,66.0,29.80,East,95,0.0,7.0,82,-99.99,,,-99.99,171.0,meteohub,2013-08-22 21:42:00,
2013-08-22 17:47:00,71.4,65.7,29.79,East,90,1.0,7.0,82,-99.99,,,-99.99,139.0,meteohub,2013-08-22 21:47:00,
2013-08-22 17:52:00,71.2,65.5,29.79,East,86,2.0,7.0,82,-99.99,,,-99.99,102.0,meteohub,2013-08-22 21:52:00,
2013-08-22 17:58:00,71.1,65.3,29.79,East,91,0.0,5.0,82,-99.99,,,-99.99,97.0,meteohub,2013-08-22 21:58:00,
2013-08-22 18:03:00,70.7,65.3,29.79,East,88,0.0,5.0,83,-99.99,,,-99.99,83.0,meteohub,2013-08-22 22:03:00,
2013-08-22 18:08:00,70.3,64.9,29.79,East,84,0.0,5.0,83,-99.99,,,-99.99,44.0,meteohub,2013-08-22 22:08:00,
2013-08-22 18:13:00,70.0,64.9,29.79,East,84,0.0,5.0,84,-99.99,,,-99.99,42.0,meteohub,2013-08-22 22:13:00,
2013-08-22 18:18:00,69.6,64.9,29.79,East,86,0.0,3.0,85,-99.99,,,-99.99,44.0,meteohub,2013-08-22 22:18:00,
2013-08-22 18:23:00,69.4,64.8,29.79,ENE,78,0.0,5.0,85,-99.99,,,-99.99,37.0,meteohub,2013-08-22 22:23:00,
2013-08-22 18:28:00,69.4,65.1,29.79,ENE,71,1.0,5.0,86,-99.99,,,-99.99,35.0,meteohub,2013-08-22 22:28:00,
2013-08-22 18:33:00,69.1,64.8,29.79,East,101,0.0,5.0,86,-99.99,,,-99.99,33.0,meteohub,2013-08-22 22:33:00,
2013-08-22 18:38:00,68.9,64.9,29.79,East,80,0.0,5.0,87,-99.99,,,-99.99,28.0,meteohub,2013-08-22 22:38:00,
2013-08-22 18:44:00,68.5,64.6,29.79,East,96,1.0,6.0,87,-99.99,,,-99.99,26.0,meteohub,2013-08-22 22:44:00,
2013-08-22 18:49:00,68.5,64.6,29.79,East,92,2.0,6.0,87,-99.99,,,-99.99,25.0,meteohub,2013-08-22 22:49:00,
2013-08-22 18:54:00,68.4,64.6,29.79,East,90,1.0,6.0,88,-99.99,,,-99.99,23.0,meteohub,2013-08-22 22:54:00,
2013-08-22 18:59:00,68.4,64.6,29.79,ESE,102,1.0,5.0,88,-99.99,,,-99.99,19.0,meteohub,2013-08-22 22:59:00,
2013-08-22 19:04:00,68.4,64.6,29.79,East,101,0.0,3.0,88,-99.99,,,-99.99,16.0,meteohub,2013-08-22 23:04:00,
2013-08-22 19:09:00,68.2,64.4,29.79,East,86,0.0,3.0,88,-99.99,,,-99.99,11.0,meteohub,2013-08-22 23:09:00,
2013-08-22 19:14:00,68.2,64.4,29.79,East,93,1.0,2.0,88,-99.99,,,-99.99,7.0,meteohub,2013-08-22 23:14:00,
2013-08-22 19:19:00,68.2,64.8,29.79,East,89,1.0,2.0,89,-99.99,,,-99.99,0.0,meteohub,2013-08-22 23:19:00,
2013-08-22 19:24:00,68.2,64.8,29.79,East,101,2.0,2.0,89,-99.99,,,-99.99,0.0,meteohub,2013-08-22 23:24:00,
2013-08-22 19:30:00,68.2,64.8,29.79,East,84,0.0,3.0,89,-99.99,,,-99.99,0.0,meteohub,2013-08-22 23:30:00,
2013-08-22 19:35:00,68.2,64.8,29.79,East,84,0.0,3.0,89,-99.99,,,-99.99,0.0,meteohub,2013-08-22 23:35:00,
2013-08-22 19:40:00,68.2,65.1,29.79,East,86,0.0,3.0,90,-99.99,,,-99.99,0.0,meteohub,2013-08-22 23:40:00,
2013-08-22 19:45:00,68.2,65.1,29.78,East,88,0.0,3.0,90,-99.99,,,-99.99,0.0,meteohub,2013-08-22 23:45:00,
2013-08-22 19:50:00,68.2,65.1,29.78,East,96,0.0,3.0,90,-99.99,,,-99.99,0.0,meteohub,2013-08-22 23:50:00,
2013-08-22 19:55:00,68.2,65.5,29.78,NE,55,0.0,6.0,91,-99.99,,,-99.99,0.0,meteohub,2013-08-22 23:55:00,
2013-08-22 20:00:00,68.2,65.5,29.78,ENE,72,0.0,6.0,91,-99.99,,,-99.99,0.0,meteohub,2013-08-23 00:00:00,
2013-08-22 20:05:00,68.2,65.5,29.78,East,94,2.0,6.0,91,-99.99,,,-99.99,0.0,meteohub,2013-08-23 00:05:00,
2013-08-22 20:10:00,68.0,65.3,29.78,East,92,0.0,2.0,91,-99.99,,,-99.99,0.0,meteohub,2013-08-23 00:10:00,
2013-08-22 20:16:00,67.8,65.5,29.78,East,91,1.0,3.0,92,-99.99,,,-99.99,0.0,meteohub,2013-08-23 00:16:00,
2013-08-22 20:21:00,67.8,65.5,29.78,East,96,0.0,3.0,92,-99.99,,,-99.99,0.0,meteohub,2013-08-23 00:21:00,
2013-08-22 20:26:00,67.8,65.7,29.78,East,95,0.0,3.0,93,-99.99,,,-99.99,0.0,meteohub,2013-08-23 00:26:00,
2013-08-22 20:31:00,68.0,65.8,29.78,NNE,22,1.0,3.0,93,-99.99,,,-99.99,0.0,meteohub,2013-08-23 00:31:00,
2013-08-22 20:36:00,68.2,66.0,29.78,East,88,5.0,5.0,93,-99.99,,,-99.99,0.0,meteohub,2013-08-23 00:36:00,
2013-08-22 20:41:00,68.2,66.4,29.79,East,94,1.0,6.0,94,-99.99,,,-99.99,0.0,meteohub,2013-08-23 00:41:00,
2013-08-22 20:46:00,68.2,66.0,29.79,East,80,3.0,6.0,93,-99.99,,,-99.99,0.0,meteohub,2013-08-23 00:46:00,
2013-08-22 20:51:00,68.2,66.0,29.79,ENE,74,1.0,8.0,93,-99.99,,,-99.99,0.0,meteohub,2013-08-23 00:51:00,
2013-08-22 20:57:00,68.0,65.8,29.78,East,96,2.0,8.0,93,-99.99,,,-99.99,0.0,meteohub,2013-08-23 00:57:00,
2013-08-22 21:02:00,67.8,65.7,29.78,East,88,0.0,5.0,93,-99.99,,,-99.99,0.0,meteohub,2013-08-23 01:02:00,
2013-08-22 21:07:00,67.6,65.8,29.78,East,88,2.0,3.0,94,-99.99,,,-99.99,0.0,meteohub,2013-08-23 01:07:00,
2013-08-22 21:12:00,67.5,65.7,29.78,NE,46,0.0,3.0,94,-99.99,,,-99.99,0.0,meteohub,2013-08-23 01:12:00,
2013-08-22 21:17:00,67.5,66.0,29.78,ENE,73,0.0,3.0,95,-99.99,,,-99.99,0.0,meteohub,2013-08-23 01:17:00,
2013-08-22 21:22:00,67.5,66.0,29.78,East,88,1.0,4.0,95,-99.99,,,-99.99,0.0,meteohub,2013-08-23 01:22:00,
2013-08-22 21:27:00,67.5,66.0,29.78,East,94,0.0,5.0,95,-99.99,,,-99.99,0.0,meteohub,2013-08-23 01:27:00,
2013-08-22 21:32:00,67.6,66.2,29.77,East,88,0.0,5.0,95,-99.99,,,-99.99,0.0,meteohub,2013-08-23 01:32:00,
2013-08-22 21:37:00,67.6,66.2,29.77,ESE,111,0.0,6.0,95,-99.99,,,-99.99,0.0,meteohub,2013-08-23 01:37:00,
2013-08-22 21:42:00,67.5,65.7,29.78,ENE,73,2.0,6.0,94,-99.99,,,-99.99,0.0,meteohub,2013-08-23 01:42:00,
2013-08-22 21:47:00,67.5,65.7,29.77,East,88,0.0,6.0,94,-99.99,,,-99.99,0.0,meteohub,2013-08-23 01:47:00,
2013-08-22 21:52:00,67.3,65.5,29.77,ENE,76,1.0,3.0,94,-99.99,,,-99.99,0.0,meteohub,2013-08-23 01:52:00,
2013-08-22 21:57:00,67.3,65.5,29.77,ENE,71,1.0,3.0,94,-99.99,,,-99.99,0.0,meteohub,2013-08-23 01:57:00,
2013-08-22 22:02:00,67.1,65.7,29.77,East,90,2.0,3.0,95,-99.99,,,-99.99,0.0,meteohub,2013-08-23 02:02:00,
2013-08-22 22:07:00,66.9,65.5,29.76,East,83,1.0,2.0,95,-99.99,,,-99.99,0.0,meteohub,2013-08-23 02:07:00,
2013-08-22 22:13:00,66.7,65.3,29.76,East,90,0.0,3.0,95,-99.99,,,-99.99,0.0,meteohub,2013-08-23 02:13:00,
2013-08-22 22:18:00,66.6,65.1,29.76,East,90,0.0,3.0,95,-99.99,,,-99.99,0.0,meteohub,2013-08-23 02:18:00,
2013-08-22 22:23:00,66.6,65.1,29.76,East,90,0.0,3.0,95,-99.99,,,-99.99,0.0,meteohub,2013-08-23 02:23:00,
2013-08-22 22:28:00,66.4,65.1,29.76,East,96,1.0,5.0,96,-99.99,,,-99.99,0.0,meteohub,2013-08-23 02:28:00,
2013-08-22 22:33:00,66.4,65.1,29.76,East,79,1.0,5.0,96,-99.99,,,-99.99,0.0,meteohub,2013-08-23 02:33:00,
2013-08-22 22:38:00,66.6,65.3,29.76,ENE,78,1.0,3.0,96,-99.99,,,-99.99,0.0,meteohub,2013-08-23 02:38:00,
2013-08-22 22:43:00,66.6,65.7,29.76,ESE,105,0.0,4.0,97,-99.99,,,-99.99,0.0,meteohub,2013-08-23 02:43:00,
2013-08-22 22:48:00,66.6,65.3,29.76,East,94,0.0,4.0,96,-99.99,,,-99.99,0.0,meteohub,2013-08-23 02:48:00,
2013-08-22 22:53:00,66.4,65.1,29.75,ENE,76,1.0,4.0,96,-99.99,,,-99.99,0.0,meteohub,2013-08-23 02:53:00,
2013-08-22 22:59:00,66.4,65.1,29.75,East,93,0.0,5.0,96,-99.99,,,-99.99,0.0,meteohub,2013-08-23 02:59:00,
2013-08-22 23:04:00,66.2,64.9,29.75,East,85,1.0,5.0,96,-99.99,,,-99.99,0.0,meteohub,2013-08-23 03:04:00,
2013-08-22 23:09:00,66.0,64.8,29.75,East,89,1.0,5.0,96,-99.99,,,-99.99,0.0,meteohub,2013-08-23 03:09:00,
2013-08-22 23:14:00,66.0,65.1,29.75,ESE,107,0.0,5.0,97,-99.99,,,-99.99,0.0,meteohub,2013-08-23 03:14:00,
2013-08-22 23:19:00,66.0,65.1,29.75,East,84,2.0,5.0,97,-99.99,,,-99.99,0.0,meteohub,2013-08-23 03:19:00,
2013-08-22 23:24:00,65.8,64.9,29.75,East,98,0.0,7.0,97,-99.99,,,-99.99,0.0,meteohub,2013-08-23 03:24:00,
2013-08-22 23:29:00,65.8,64.9,29.75,ENE,75,1.0,7.0,97,-99.99,,,-99.99,0.0,meteohub,2013-08-23 03:29:00,
2013-08-22 23:34:00,65.8,64.9,29.75,ENE,74,1.0,7.0,97,-99.99,,,-99.99,0.0,meteohub,2013-08-23 03:34:00,
2013-08-22 23:39:00,65.8,64.9,29.75,East,83,0.0,5.0,97,-99.99,,,-99.99,0.0,meteohub,2013-08-23 03:39:00,
2013-08-22 23:45:00,65.8,64.9,29.74,ESE,108,0.0,5.0,97,-99.99,,,-99.99,0.0,meteohub,2013-08-23 03:45:00,
2013-08-22 23:50:00,65.8,64.9,29.74,East,98,0.0,7.0,97,-99.99,,,-99.99,0.0,meteohub,2013-08-23 03:50:00,
2013-08-22 23:55:00,65.8,64.9,29.74,East,88,0.0,7.0,97,-99.99,,,-99.99,0.0,meteohub,2013-08-23 03:55:00,